Alma, GA

1:03 PM EDT on July 24, 2017 (GMT -0400)
Bacon County

Weather History for KAMG - November, 2012

Change the Weather History Date:

Tuesday, November 6, 2012

  Actual Average Record
Temperature  
Mean Temperature 56 °F 62 °F  
Max Temperature 69 °F 74 °F 85 °F (1986)
Min Temperature 43 °F 51 °F 28 °F (1976)
Degree Days  
Heating Degree Days 9 4  
Month to date heating degree days 27 24  
Since 1 July heating degree days 62 74  
Cooling Degree Days 0 2  
Month to date cooling degree days 8 12  
Year to date cooling degree days 2656 2437  
Growing Degree Days 6 (Base 50)    
Moisture  
Dew Point 49 °F    
Average Humidity 75    
Maximum Humidity 100    
Minimum Humidity 49    
Precipitation  
Precipitation 0.00 in 0.09 in 0.83 in (2002)
Month to date precipitation 0.00 0.49  
Year to date precipitation 33.35 41.37  
Snow  
Snow 0.00 in 0.00 in 0.00 in ()
Month to date snowfall 0.0 0.0  
Since 1 July snowfall 0.0 0.0  
Since 1 September snowfall 0.0 0.0  
Snow Depth 0.00 in    
Sea Level Pressure  
Sea Level Pressure 29.92 in    
Wind  
Wind Speed 6 mph (North)    
Max Wind Speed 17 mph    
Max Gust Speed 24 mph    
Visibility 8 miles    
Events Rain    
T = Trace of Precipitation, MM = Missing Value Source: NWS Daily Summary

Daily Weather History Graph

Daily Weather History Graph

Search for Another Location

Airport or City:

Trip Planner

Search our weather history database for the weather conditions in past years. The results will help you decide how hot, cold, wet, or windy it might be!

Date:

Astronomy

Nov. 06, 2012 Rise Set
Actual Time 6:50 AM EST 5:36 PM EST
Civil Twilight 6:25 AM EST 6:01 PM EST
Nautical Twilight 5:56 AM EST 6:30 PM EST
Astronomical Twilight 5:27 AM EST 6:59 PM EST
Moon No Moon Rise 12:45 PM EST (11/6)
Length of Visible Light 11h 36m
Length of Day
10h 45m
Waning Gibbous, 53% of the Moon is Illuminated
Nov 6
Waning Gibbous
Nov 6
Last Quarter
Nov 13
New
Nov 20
First Quarter
Nov 28
Full

Hourly Weather History & Observations

Time (EST) Temp. Windchill Dew Point Humidity Pressure Visibility Wind Dir Wind Speed Gust Speed Precip Events Conditions
12:53 AM 55.9 °F - 46.9 °F 72% 29.94 in 10.0 mi ESE 4.6 mph - N/A   Overcast
1:53 AM 55.9 °F - 48.0 °F 75% 29.95 in 10.0 mi ESE 4.6 mph - N/A   Overcast
2:53 AM 55.0 °F - 50.0 °F 83% 29.91 in 10.0 mi East 4.6 mph - 0.00 in   Overcast
3:53 AM 54.0 °F - 51.1 °F 90% 29.90 in 9.0 mi East 5.8 mph - 0.01 in Rain Light Rain
4:24 AM 53.6 °F - 51.8 °F 94% 29.98 in 2.0 mi North 3.5 mph - 0.08 in Rain Heavy Rain
4:34 AM 53.6 °F - 51.8 °F 94% 29.97 in 4.0 mi Calm Calm - 0.10 in Rain Rain
4:53 AM 54.0 °F - 52.0 °F 93% 29.96 in 4.0 mi SE 5.8 mph - 0.13 in Rain Rain
5:53 AM 54.0 °F - 52.0 °F 93% 29.95 in 8.0 mi South 8.1 mph - 0.04 in   Overcast
6:07 AM 53.6 °F - 51.8 °F 94% 29.93 in 7.0 mi SE 6.9 mph - N/A   Overcast
7:05 AM 53.6 °F - 51.8 °F 94% 29.94 in 8.0 mi NNW 6.9 mph - N/A   Overcast
7:43 AM 53.6 °F - 51.8 °F 94% 29.92 in 5.0 mi NE 3.5 mph - N/A   Scattered Clouds
7:53 AM 54.0 °F - 53.1 °F 97% 29.91 in 5.0 mi East 3.5 mph - N/A   Clear
9:53 AM 61.0 °F - 53.1 °F 75% 29.92 in 10.0 mi SW 9.2 mph - N/A   Partly Cloudy
10:26 AM 62.6 °F - 53.6 °F 72% 29.92 in 10.0 mi Variable 5.8 mph - N/A   Mostly Cloudy
10:50 AM 62.6 °F - 53.6 °F 72% 29.91 in 10.0 mi WSW 6.9 mph - N/A   Overcast
10:53 AM 62.1 °F - 52.0 °F 70% 29.91 in 10.0 mi WSW 9.2 mph - N/A   Overcast
11:53 AM 64.9 °F - 52.0 °F 63% 29.89 in 10.0 mi WSW 6.9 mph - N/A   Mostly Cloudy
12:53 PM 64.0 °F - 52.0 °F 65% 29.87 in 10.0 mi WNW 9.2 mph - N/A   Overcast
1:53 PM 68.0 °F - 48.9 °F 50% 29.85 in 10.0 mi West 12.7 mph 16.1 mph N/A   Partly Cloudy
2:53 PM 64.0 °F - 52.0 °F 65% 29.85 in 10.0 mi North 12.7 mph - N/A   Partly Cloudy
3:53 PM 62.1 °F - 51.1 °F 67% 29.86 in 9.0 mi North 10.4 mph 16.1 mph N/A   Clear
4:53 PM 55.0 °F - 48.0 °F 77% 29.88 in 7.0 mi North 8.1 mph 18.4 mph N/A   Scattered Clouds
5:02 PM 55.4 °F - 48.2 °F 77% 29.88 in 7.0 mi North 8.1 mph - N/A   Mostly Cloudy
5:53 PM 53.1 °F - 46.9 °F 80% 29.90 in 9.0 mi NNE 5.8 mph - N/A   Overcast
6:53 PM 52.0 °F - 45.0 °F 77% 29.93 in 10.0 mi North 5.8 mph - N/A   Overcast
7:53 PM 50.0 °F - 43.0 °F 77% 29.94 in 10.0 mi North 3.5 mph - N/A   Mostly Cloudy
8:53 PM 48.0 °F - 39.9 °F 74% 29.94 in 10.0 mi North 3.5 mph - N/A   Clear
9:53 PM 45.0 °F - 39.0 °F 80% 29.95 in 10.0 mi Calm Calm - N/A   Clear
10:53 PM 44.1 °F 42.5 °F 39.0 °F 82% 29.95 in 9.0 mi NNW 3.5 mph - N/A   Clear
11:53 PM 43.0 °F 41.3 °F 39.0 °F 86% 29.94 in 9.0 mi NW 3.5 mph - N/A   Clear